Notices

What's New in latest Release from April 7th, 2021:

- Updated Glossary, including Speed of Maximum Gust, and Total Hourly Precipitation

- Updated national and regional climate services offices contacts and prices information

- Addition of station inventory lists for 1981-2010, 1971-2000, and 1961-1990 Normals.

If you haven't already, please take our survey and provide feedback about our website: https://eccc.sondage-survey.ca/f/LanguageSelection.aspx?s=442ca660-fcf1-47c0-95a9-59707d6fd709

Hourly Data Report for November 23, 2019

SAINT JOHN A
NEW BRUNSWICK
Current Station Operator: NAVCAN

45°18'58.000" N
65°53'24.000" W
108.80 m
8104901
71609
YSJ

Download Data

Hourly Data (November 2019)
Hourly Data Report for November 23, 2019
TIME
LST
Temp Definition
°C
Dew Point Definition
°C
Rel Hum Definition
%
Precip. Amount Definition
mm

Wind Dir Definition
10's deg

Wind Spd Definition
km/h
Visibility Definition
km
Stn Press Definition
kPa
Hmdx Definition


Wind Chill Definition


Weather Definition


00:00 2.0 0.9 93   28 18 24.1 98.03     LegendNANA
01:00 1.3 -0.3 89   29 22 24.1 98.06     LegendNANA
02:00 0.5 -1.6 86   29 22 24.1 98.12     Cloudy
03:00 0.2 -2.5 82   29 25 24.1 98.23     LegendNANA
04:00 -0.3 -4.2 75   30 36 24.1 98.35   -7 LegendNANA
05:00 -0.7 -5.3 71   30 34 24.1 98.46   -8 Cloudy
06:00 -1.4 -6.4 69   29 35 24.1 98.58   -9 LegendNANA
07:00 -2.1 -7.6 66   30 31 24.1 98.68   -9 LegendNANA
08:00 -2.9 -9.1 63   30 50 24.1 98.75   -12 Mostly Cloudy
09:00 -3.0 -8.9 64   30 32 24.1 98.86   -11 LegendNANA
10:00 -3.1 -9.2 63   29 20 24.1 98.95   -9 LegendNANA
11:00 -2.2 -9.3 58   27 23 24.1 99.00   -8 Mainly Clear
12:00 -1.6 -9.8 54   28 30 24.1 99.02   -9 LegendNANA
13:00 -0.7 -10.3 48   29 26 24.1 99.07   -7 LegendNANA
14:00 0.1 -10.8 44   28 21 24.1 99.05     Clear
15:00 0.4 -11.2 42   29 23 24.1 99.05     LegendNANA
16:00 0.7 -12.2 38   29 26 24.1 99.15     LegendNANA
17:00 -0.3 -10.8 45   30 19 24.1 99.23   -5 Mainly Clear
18:00 -0.4 -9.4 51   28 18 24.1 99.32   -5 LegendNANA
19:00 -0.8 -9.2 53   28 16 24.1 99.38   -6 LegendNANA
20:00 -0.8 -8.3 57   28 22 24.1 99.46   -7 Mainly Clear
21:00 -1.3 -8.0 60   29 12 24.1 99.44   -5 LegendNANA
22:00 -1.9 -7.5 66   28 10 24.1 99.40   -6 LegendNANA
23:00 -2.4 -7.3 69   32 6 24.1 99.43   -5 Clear

Notes on Data Quality.

Legend

  • E = Estimated
  • M = Missing
  • NA = Not Available*
  • [empty] = Indicates an unobserved value
Date modified: